Regional Weather Roundup
Issued by NWS Sterling, VA

Home | Current Version | Previous Version | Text Only | Print | Product List | Glossary Off
Versions: 1 2 3 4 5 6 7 8 9 10 11 12 13 14 15 16 17 18 19 20 21 22 23 24 25 26 27 28

000
ASUS41 KLWX 200611
RWRLWX

REGIONAL WEATHER ROUNDUP
NATIONAL WEATHER SERVICE BALTIMORE MD/WASHINGTON DC
200 AM EDT SUN MAY 20 2018

Note: "FAIR" indicates few or no clouds below 12,000 feet
with no significant weather and/or obstructions to visibility.
 TC=TEMPERATURE CELSIUS

 * =Non NWS site. Station does not report precipitation (e.g. rain,
    snow, etc.), thunder, or fog.

DCZ001-MDZ009-015-VAZ040>042-051-053>054-200700-
WASHINGTON METRO

CITY           SKY/WX    TMP DP  RH WIND       PRES   REMARKS
WASHINGTON NAT CLOUDY    72  68  87 S9        30.02F
DULLES         CLOUDY    67  67 100 S6        30.02S
ANDREWS AFB    CLOUDY    71  68  93 S8        30.02F
FT BELVOIR     CLOUDY    71  69  92 CALM      30.02F
QUANTICO       CLOUDY    72  70  93 S10       30.03F
COLLEGE PARK*  CLOUDY    71  68  90 S3        30.02S
LEESBURG*      CLOUDY    63  63 100 S7        30.02F
MANASSAS*      CLOUDY    67  67 100 CALM      30.03S

$$

MDZ006>007-011-014-200700-
BALTIMORE METRO

CITY           SKY/WX    TMP DP  RH WIND       PRES   REMARKS
BWI AIRPORT    CLOUDY    70  69  97 S5        30.01F
MD SCIENCE CTR   N/A     68  68 100 MISG      30.02F
MARTIN STATE   CLOUDY    70  70 100 SE7       30.03F
ANNAPOLIS      CLOUDY    71  68  90 S6        30.02F
FORT MEADE*    CLOUDY    68  68 100 S5        30.04S

$$

MDZ012-015-019>023-200700-
MARYLAND EASTERN SHORE

CITY           SKY/WX    TMP DP  RH WIND       PRES   REMARKS
OCEAN CITY     CLOUDY    67  66  97 S9G20     30.09F
SALISBURY      CLOUDY    70  69  97 S10       30.07F
BAY BRIDGE AP* CLOUDY    70  68  94 S10       30.03S
CAMBRIDGE*       N/A     72  70  94 S7        30.06F
EASTON*        CLOUDY    72  69  89 SW13      30.08F

$$

MDZ017>025-200700-
SOUTHERN MARYLAND

CITY           SKY/WX    TMP DP  RH WIND       PRES   REMARKS
PATUXENT RIVER CLOUDY   N/A N/A N/A S16G23    30.04F
ST INIGOES     NOT AVBL
LEONARDTOWN*   CLOUDY    70  66  88 S9G17     30.06F

$$

MDZ003>005-200700-
NORTH CENTRAL MARYLAND

CITY           SKY/WX    TMP DP  RH WIND       PRES   REMARKS
FREDERICK*     CLOUDY    63  63 100 CALM      30.04F FOG
HAGERSTOWN APT FOG       59  58  96 W5        30.00F VSB 1/4
WESTMINSTER*   CLOUDY    70  70 100 SW9G18    30.02S

$$

MDZ501>502-200700-
WESTERN MARYLAND

CITY           SKY/WX    TMP DP  RH WIND       PRES   REMARKS
OAKLAND*       CLOUDY    61  61 100 W8        30.07S
CUMBERLAND*    CLOUDY    59  59 100 CALM      30.06S

$$

VAZ025>031-200700-
SHENANDOAH VALLEY

CITY           SKY/WX    TMP DP  RH WIND       PRES   REMARKS
WINCHESTER*    FAIR      59  59 100 SE3       30.02F
FRONT ROYAL*   FAIR     N/A N/A N/A CALM      30.00F
LURAY*         FAIR      68  66  94 SW8       30.02S
NEW MARKET*    FAIR     N/A N/A N/A SW5       30.01S
STAUNTON*      RAIN      64  64  99 S3        30.08S
WAYNESBORO*    MOCLDY    65  65  99 CALM      30.07S

$$

WVZ021-048>050-054>055-200700-
EASTERN WEST VIRGINIA PANHANDLE

CITY           SKY/WX    TMP DP  RH WIND       PRES   REMARKS
MARTINSBURG    FOG       60  60 100 CALM      29.99F VSB 1/4
PETERSBURG*    LGT RAIN  60  60  98 CALM      30.02F

$$

VAZ036>039-050-200700-
CENTRAL FOOTHILLS

CITY           SKY/WX    TMP DP  RH WIND       PRES   REMARKS
CHARLOTTESVILL FAIR      68  66  93 S7        30.03F
CULPEPER*      CLOUDY    68  66  95 CALM      30.04S
ORANGE*        CLOUDY    70  68  94 SW8G16    30.03S
GORDONSVILLE*  CLOUDY    70  70 100 SW8       30.03S
WARRENTON*     LGT RAIN  69  66  90 SW3       30.02S

$$

VAZ055>057-200700-
NORTH AND CENTRAL PIEDMONT

CITY           SKY/WX    TMP DP  RH WIND       PRES   REMARKS
FREDERICKSBRG* CLOUDY    72  72 100 S10       30.03S
STAFFORD*      CLOUDY    72  72 100 S6        30.07S

$$

NCZ024-NYZ072-PAZ021-071-VAZ022-071-200700-
OTHER REGIONAL OBSERVATIONS

CITY           SKY/WX    TMP DP  RH WIND       PRES   REMARKS
NEW YORK CITY  CLOUDY    57  56  96 CALM      30.04F FOG
PHILADELPHIA   CLOUDY    69  68  96 S14       30.01F
PITTSBURGH     CLOUDY    67  65  93 SW6       29.97S
ROANOKE        CLOUDY    69  67  93 SW5       30.10S
RICHMOND       MOCLDY    71  68  90 S15       30.07F
RALEIGH        MOCLDY    70  69  97 S10       30.13F

$$

ANZ530>537-200700-
MARINE OBSERVATIONS

STATION/POSITION TIME  TEMP    WIND        PRES
                       AIR SEA DIR/SP/G
                 (UTC) (F)     (DEG/KT/KT) (MB)
THOMAS PT LIGHT  0600   67 65  170/ 16/ 17 1017.5F
BALT KEY BRIDGE  0536   70     190/  7/  9 1016.5F
COVE POINT       0536   72     210/ 16/ 20 1018.2F
LEWISETTA        0536   73 71  220/ 15/ 19 1017.9F
SOLOMONS ISLAND  0536   72 67  200/ 19/ 24 1017.2F
PINEY POINT      0536          210/ 13/ 16   N/A

$$





USA.gov is the U.S. government's official web portal to all federal, state and local government web resources and services.